Regional Weather Roundup
Issued by NWS Wilmington, NC

Home | Current Version | Previous Version | Text Only | Print | Product List | Glossary On
Versions: 1 2 3 4 5 6 7 8 9 10 11 12 13 14 15 16 17 18 19 20 21 22 23 24 25 26 27 28 29 30 31 32 33 34 35 36 37 38 39 40 41 42 43 44 45 46 47 48 49 50
000
ASUS42 KILM 301710
RWRILM
RWRILM
REGIONAL HOURLY WEATHER ROUNDUP
NATIONAL WEATHER SERVICE WILMINGTON NC
1200 PM EST FRI JAN 30 2015

NOTE: "FAIR" INDICATES FEW OR NO CLOUDS BELOW 12,000 FEET WITH NO
SIGNIFICANT WEATHER AND/OR OBSTRUCTIONS TO VISIBILITY.

...............WFO WILMINGTON COUNTY WARNING AREA...............

......COASTAL NC AND SC COUNTIES......

CITY           SKY/WX    TMP DP  RH WIND       PRES   REMARKS
WILMINGTON     MOSUNNY   52  30  43 NW21G26   30.06S
SOUTHPORT      MOSUNNY   51  32  48 NW14G24   30.06S
N MYRTLE BEACH SUNNY     52  30  43 NW15G24   30.09R
MYRTLE BEACH   SUNNY     54  28  37 NW18G28   30.12R

......INLAND NC AND SC COUNTIES.......

CITY           SKY/WX    TMP DP  RH WIND       PRES   REMARKS
LUMBERTON      SUNNY     50  25  37 NW17G31   30.12R
ELIZABETHTOWN  MOSUNNY   50  26  39 NW10G25   30.09F
WHITEVILLE     SUNNY     50  27  40 N6G16     30.09F
FLORENCE       MOSUNNY   53  28  38 N14G24    30.14S
DARLINGTON     SUNNY     52  25  35 NW23G30   30.17R

....................REST OF NORTH CAROLINA......................

.........EASTERN NC.........

CITY           SKY/WX    TMP DP  RH WIND       PRES   REMARKS
CAPE HATTERAS  CLOUDY    41  36  82 N12G22    29.99F
JACKSONVILLE   PTSUNNY   48  27  43 NW12G24   30.07S
MOREHEAD CITY  MOSUNNY   51  34  52 N21G30    30.01S
KENANSVILLE    PTSUNNY   47  25  42 NW13      30.09S
NEW BERN       CLOUDY    51  28  41 NW12G24   30.04S
ELIZABETH CITY CLOUDY    43  30  60 N15G23    30.02R

.........CENTRAL NC.........

CITY           SKY/WX    TMP DP  RH WIND       PRES   REMARKS
RALEIGH DURHAM PTSUNNY   45  18  34 NW13G22   30.11S
ROCKY MOUNT    MOSUNNY   48  20  32 NW22G31   30.08S
ROANOKE RAPIDS NOT AVBL
FAYETTEVILLE   MOSUNNY   49  22  34 NW16G30   30.11S
HOFFMAN        MOSUNNY   48  23  36 NW14G29   30.15S

.........WESTERN NC.........

CITY           SKY/WX    TMP DP  RH WIND       PRES   REMARKS
CHARLOTTE      MOSUNNY   47  16  29 NW17G28   30.18F
GREENSBORO     MOSUNNY   44  15  31 NW23G33   30.12F
HICKORY        NOT AVBL
BOONE          NOT AVBL
ASHEVILLE      NOT AVBL

.....................REST OF SOUTH CAROLINA.....................

.........EASTERN SC.........

CITY           SKY/WX    TMP DP  RH WIND       PRES   REMARKS
CHARLESTON     SUNNY     56  32  40 N21       30.13S
BEAUFORT MCAS  MOSUNNY   56  37  49 NW16G25   30.16R
HILTON HEAD    MOSUNNY   57  39  51 N10G24    30.16R

.........CENTRAL SC.........

CITY           SKY/WX    TMP DP  RH WIND       PRES   REMARKS
COLUMBIA       MOSUNNY   51  24  34 NW21G28   30.21R
ORANGEBURG     SUNNY     52  25  35 NW12G24   30.18S
SUMTER SHAW    SUNNY     51  24  34 NW17G25   30.15S

.........WESTERN SC.........

CITY           SKY/WX    TMP DP  RH WIND       PRES   REMARKS
GREENVILLE     NOT AVBL
ROCK HILL      SUNNY     47  20  34 NW16G24   30.19S
ANDERSON       SUNNY     49  21  33 W9G20     30.22F
CLEMSON        NOT AVBL
GREENWOOD      SUNNY     50  23  34 N10       30.23F


...................COASTAL AND OFFSHORE REPORTS..................

................LOCAL PIERS AND NC RESERVE................


STATION/POSITION TIME  SKY/WX   TEMP    WIND        PRES    VSBY
                                AIR SEA DIR/SP/G
                 (UTC)          (F)     (DEG/KT/KT) (MB)    (MI)
JOHNY MRCER PIER 1600            49 54  320/ 16/ 22 1017.0R
NC RESRV MASNBRO NOT AVBL
OCEAN CREST PIER 1600               51                N/A
SPRINGMAID  PIER 1600            50 50  290/ 15/ 21 1019.0R


................COASTAL AND OFFSHORE BUOYS................


STATION/POSITION TIME  SKY/WX   TEMP    WIND        PRES    VSBY
                                AIR SEA DIR/SP/G
                 (UTC)          (F)     (DEG/KT/KT) (MB)    (MI)
DIMNDSHOAL 41025 1700            45 68  350/ 23/ 29 1014.3F
WVE H/P(F/S)=  5/ 5 WND WVE H/P(F/S)=  5/ 5 SWL H/P/D(F/S/D)=  2/ 30/11

CAPE LOOKOUT     1600            46     330/ 16/ 19 1015.9F
ONSLOW BAY 41036 NOT AVBL
5 WRITEBCH 41038 1600            49 52  340/ 21/ 25 1017.4R
MASONBORO  41110 NOT AVBL
WILM HARBR 41108 1600               53                N/A
WVE H/P(F/S)=  4/ 7 WND WVE H/P(F/S)=  3/ 7

27WRITEBCH 41037 NOT AVBL
FRYING PAN 41013 1700            50 63  320/ 17/ 23 1017.9R
WVE H/P(F/S)=  5/ 4 WND WVE H/P(F/S)=  5/ 4

SUNST NRSH 41024 NOT AVBL
CAPRS NRSH 41029 NOT AVBL
EDISTO     41004 1700            55 68  330/ 17/ 21 1018.5R
WVE H/P(F/S)=  5/ 6 WND WVE H/P(F/S)=  5/ 6 SWL H/P/D(F/S/D)=  2/ 9



..........OFFSHORE BUOYS BEYOND 100 NM OFFSHORE...........
.....IN A TRIANGLE---HAT TO BERMUDA TO BAHAMAS TO HAT.....


STATION/POSITION TIME  SKY/WX   TEMP    WIND        PRES    VSBY
                                AIR SEA DIR/SP/G
                 (UTC)          (F)     (DEG/KT/KT) (MB)    (MI)
150E HAT   41001 NOT AVBL
W BERMUDA  41048 NOT AVBL
ATLANTIC S 41049 1649            69 74  340/  4/  6 1017.8F
WVE H/P(F/S)=  9/ 9 WND WVE H/P(F/S)=  2/ 4 SWL H/P/D(F/S/D)=  8/340/ 9

E BAHAMAS  41046 1611            72 78   70/  4/  6 1018.4F
WVE H/P(F/S)=  7/10 WND WVE H/P(F/S)=  2/ 4 SWL H/P/D(F/S/D)=  7/340/10

NE BAHAMAS 41047 1628            67 76  320/  4/  6 1020.4F
WVE H/P(F/S)=  6/ 9 WND WVE H/P(F/S)=  2/ 4 SWL H/P/D(F/S/D)=  7/ 10/ 9

120E CANVRL41010 1700            69 74  270/ 21/ 27 1020.3F
WVE H/P(F/S)=  5/10 WND WVE H/P(F/S)=  5/ 5 SWL H/P/D(F/S/D)=  3/ 30/10


END


USA.gov is the U.S. government's official web portal to all federal, state and local government web resources and services.